Time,TemperatureF,DewpointF,PressureIn,WindDirection,WindDirectionDegrees,WindSpeedMPH,WindSpeedGustMPH,Humidity,HourlyPrecipIn,Conditions,Clouds,dailyrainin,SoftwareType,DateUTC
2013-03-30 00:04:00,49.9,36.1,30.06,SSE,153,3.0,4.0,59,0.00,,,0.00,Wunderground v.1.15,2013-03-30 05:04:00,
2013-03-30 00:09:00,49.7,36.4,30.06,SE,144,3.0,4.0,60,0.00,,,0.00,Wunderground v.1.15,2013-03-30 05:09:00,
2013-03-30 00:15:00,49.6,36.3,30.07,ESE,121,3.0,6.0,60,0.00,,,0.00,Wunderground v.1.15,2013-03-30 05:15:00,
2013-03-30 00:20:00,49.5,36.6,30.06,SSE,155,3.0,3.0,61,0.00,,,0.00,Wunderground v.1.15,2013-03-30 05:20:00,
2013-03-30 00:26:00,49.2,36.3,30.06,SSE,167,3.0,4.0,61,0.00,,,0.00,Wunderground v.1.15,2013-03-30 05:26:00,
2013-03-30 00:32:00,49.0,36.5,30.05,SSE,168,3.0,5.0,62,0.00,,,0.00,Wunderground v.1.15,2013-03-30 05:32:00,
2013-03-30 00:37:00,48.8,36.4,30.05,SSE,167,4.0,5.0,62,0.00,,,0.00,Wunderground v.1.15,2013-03-30 05:37:00,
2013-03-30 00:43:00,48.7,36.3,30.05,ESE,107,3.0,4.0,62,0.00,,,0.00,Wunderground v.1.15,2013-03-30 05:43:00,
2013-03-30 00:48:00,48.5,36.5,30.04,SE,125,3.0,4.0,63,0.00,,,0.00,Wunderground v.1.15,2013-03-30 05:48:00,
2013-03-30 00:53:00,48.4,36.4,30.05,SE,128,3.0,5.0,63,0.00,,,0.00,Wunderground v.1.15,2013-03-30 05:53:00,
2013-03-30 00:58:00,48.3,36.3,30.04,SE,129,3.0,5.0,63,0.00,,,0.00,Wunderground v.1.15,2013-03-30 05:58:00,
2013-03-30 01:03:00,48.3,36.3,30.05,SE,138,4.0,4.0,63,0.00,,,0.00,Wunderground v.1.15,2013-03-30 06:03:00,
2013-03-30 01:08:00,48.2,36.6,30.05,SSE,165,4.0,4.0,64,0.00,,,0.00,Wunderground v.1.15,2013-03-30 06:08:00,
2013-03-30 01:14:00,48.3,36.7,30.05,SE,144,4.0,6.0,64,0.00,,,0.00,Wunderground v.1.15,2013-03-30 06:14:00,
2013-03-30 01:20:00,48.2,36.6,30.05,ESE,115,4.0,4.0,64,0.00,,,0.00,Wunderground v.1.15,2013-03-30 06:20:00,
2013-03-30 01:26:00,48.2,37.0,30.05,SSE,160,4.0,4.0,65,0.00,,,0.00,Wunderground v.1.15,2013-03-30 06:26:00,
2013-03-30 01:31:00,48.2,37.0,30.05,SSE,155,3.0,4.0,65,0.00,,,0.00,Wunderground v.1.15,2013-03-30 06:31:00,
2013-03-30 01:36:00,48.1,36.9,30.05,SSE,150,3.0,6.0,65,0.00,,,0.00,Wunderground v.1.15,2013-03-30 06:36:00,
2013-03-30 01:41:00,48.0,36.8,30.05,SSE,148,3.0,4.0,65,0.00,,,0.00,Wunderground v.1.15,2013-03-30 06:41:00,
2013-03-30 01:46:00,47.9,36.7,30.05,SE,146,3.0,4.0,65,0.00,,,0.00,Wunderground v.1.15,2013-03-30 06:46:00,
2013-03-30 01:52:00,47.8,37.0,30.05,South,173,3.0,4.0,66,0.00,,,0.00,Wunderground v.1.15,2013-03-30 06:52:00,
2013-03-30 01:58:00,47.8,37.0,30.05,SSE,160,3.0,4.0,66,0.00,,,0.00,Wunderground v.1.15,2013-03-30 06:58:00,
2013-03-30 02:04:00,47.8,37.0,30.05,SSE,159,3.0,4.0,66,0.00,,,0.00,Wunderground v.1.15,2013-03-30 07:04:00,
2013-03-30 02:10:00,47.8,37.4,30.05,SSE,162,2.0,4.0,67,0.00,,,0.00,Wunderground v.1.15,2013-03-30 07:10:00,
2013-03-30 02:16:00,47.7,37.3,30.05,SSE,162,2.0,4.0,67,0.00,,,0.00,Wunderground v.1.15,2013-03-30 07:16:00,
2013-03-30 02:22:00,47.6,37.2,30.04,SE,134,2.0,4.0,67,0.00,,,0.00,Wunderground v.1.15,2013-03-30 07:22:00,
2013-03-30 02:27:00,47.5,37.5,30.04,South,182,3.0,5.0,68,0.00,,,0.00,Wunderground v.1.15,2013-03-30 07:27:00,
2013-03-30 02:33:00,47.5,37.5,30.04,SE,145,4.0,4.0,68,0.00,,,0.00,Wunderground v.1.15,2013-03-30 07:33:00,
2013-03-30 02:38:00,47.5,37.5,30.04,SSE,164,3.0,9.0,68,0.00,,,0.00,Wunderground v.1.15,2013-03-30 07:38:00,
2013-03-30 02:44:00,47.5,37.5,30.04,SSE,162,2.0,4.0,68,0.00,,,0.00,Wunderground v.1.15,2013-03-30 07:44:00,
2013-03-30 02:50:00,47.5,37.5,30.03,SSE,150,2.0,2.0,68,0.00,,,0.00,Wunderground v.1.15,2013-03-30 07:50:00,
2013-03-30 02:56:00,47.5,37.8,30.03,SE,136,2.0,4.0,69,0.00,,,0.00,Wunderground v.1.15,2013-03-30 07:56:00,
2013-03-30 03:01:00,47.4,37.7,30.03,SSE,167,2.0,3.0,69,0.00,,,0.00,Wunderground v.1.15,2013-03-30 08:01:00,
2013-03-30 03:06:00,47.4,37.7,30.03,SE,144,2.0,4.0,69,0.00,,,0.00,Wunderground v.1.15,2013-03-30 08:06:00,
2013-03-30 03:12:00,47.4,37.7,30.03,SE,138,1.0,4.0,69,0.00,,,0.00,Wunderground v.1.15,2013-03-30 08:12:00,
2013-03-30 03:17:00,47.4,37.7,30.03,SE,139,2.0,4.0,69,0.00,,,0.00,Wunderground v.1.15,2013-03-30 08:17:00,
2013-03-30 03:23:00,47.5,37.8,30.02,SSE,154,2.0,4.0,69,0.00,,,0.00,Wunderground v.1.15,2013-03-30 08:23:00,
2013-03-30 03:29:00,47.5,37.8,30.02,SSE,153,2.0,4.0,69,0.00,,,0.00,Wunderground v.1.15,2013-03-30 08:29:00,
2013-03-30 03:34:00,47.5,38.2,30.02,SSE,154,1.0,4.0,70,0.00,,,0.00,Wunderground v.1.15,2013-03-30 08:34:00,
2013-03-30 03:40:00,47.4,38.1,30.02,SSE,153,1.0,1.0,70,0.00,,,0.00,Wunderground v.1.15,2013-03-30 08:40:00,
2013-03-30 03:45:00,47.4,38.1,30.01,SSE,153,1.0,4.0,70,0.00,,,0.00,Wunderground v.1.15,2013-03-30 08:45:00,
2013-03-30 03:51:00,47.4,38.1,30.01,SSE,153,0.0,4.0,70,0.00,,,0.00,Wunderground v.1.15,2013-03-30 08:51:00,
2013-03-30 03:57:00,47.3,38.4,30.01,SSE,153,1.0,4.0,71,0.00,,,0.00,Wunderground v.1.15,2013-03-30 08:57:00,
2013-03-30 04:02:00,47.4,38.5,30.00,SSE,147,2.0,4.0,71,0.00,,,0.00,Wunderground v.1.15,2013-03-30 09:02:00,
2013-03-30 04:07:00,47.4,38.5,30.00,SSE,147,2.0,4.0,71,0.00,,,0.00,Wunderground v.1.15,2013-03-30 09:07:00,
2013-03-30 04:13:00,47.5,38.6,30.00,SSE,148,1.0,4.0,71,0.00,,,0.00,Wunderground v.1.15,2013-03-30 09:13:00,
2013-03-30 04:19:00,47.5,38.9,29.99,SSE,148,1.0,4.0,72,0.00,,,0.00,Wunderground v.1.15,2013-03-30 09:19:00,
2013-03-30 04:24:00,47.6,39.0,29.99,SE,144,1.0,4.0,72,0.00,,,0.00,Wunderground v.1.15,2013-03-30 09:24:00,
2013-03-30 04:30:00,47.6,38.7,29.99,South,171,2.0,4.0,71,0.00,,,0.00,Wunderground v.1.15,2013-03-30 09:30:00,
2013-03-30 04:35:00,47.7,38.8,29.98,SSE,149,2.0,4.0,71,0.00,,,0.00,Wunderground v.1.15,2013-03-30 09:35:00,
2013-03-30 04:41:00,47.8,38.8,29.98,SSE,149,1.0,4.0,71,0.00,,,0.00,Wunderground v.1.15,2013-03-30 09:41:00,
2013-03-30 04:42:00,47.8,38.8,29.98,SSE,149,1.0,4.0,71,0.00,,,0.00,Wunderground v.1.15,2013-03-30 09:42:00,
2013-03-30 04:47:00,47.7,38.8,29.98,SSE,155,0.0,4.0,71,0.00,,,0.00,Wunderground v.1.15,2013-03-30 09:47:00,
2013-03-30 04:52:00,47.8,38.8,29.98,SSE,155,0.0,4.0,71,0.00,,,0.00,Wunderground v.1.15,2013-03-30 09:52:00,
2013-03-30 04:57:00,47.8,38.8,29.98,South,169,1.0,4.0,71,0.00,,,0.00,Wunderground v.1.15,2013-03-30 09:57:00,
2013-03-30 05:03:00,47.9,38.9,29.98,SE,142,1.0,4.0,71,0.00,,,0.00,Wunderground v.1.15,2013-03-30 10:03:00,
2013-03-30 05:08:00,47.9,38.9,29.98,SSE,153,1.0,4.0,71,0.00,,,0.00,Wunderground v.1.15,2013-03-30 10:08:00,
2013-03-30 05:13:00,48.0,39.0,29.97,SSE,155,2.0,4.0,71,0.00,,,0.00,Wunderground v.1.15,2013-03-30 10:13:00,
2013-03-30 05:19:00,48.0,39.0,29.97,SSE,159,2.0,5.0,71,0.00,,,0.00,Wunderground v.1.15,2013-03-30 10:19:00,
2013-03-30 05:24:00,47.9,38.9,29.96,SE,145,3.0,6.0,71,0.00,,,0.00,Wunderground v.1.15,2013-03-30 10:24:00,
2013-03-30 05:30:00,47.9,39.3,29.96,SE,145,2.0,2.0,72,0.00,,,0.00,Wunderground v.1.15,2013-03-30 10:30:00,
2013-03-30 05:36:00,47.8,39.2,29.96,SE,146,2.0,4.0,72,0.00,,,0.00,Wunderground v.1.15,2013-03-30 10:36:00,
2013-03-30 05:42:00,47.8,39.2,29.96,SE,146,2.0,4.0,72,0.00,,,0.00,Wunderground v.1.15,2013-03-30 10:42:00,
2013-03-30 05:48:00,47.7,39.5,29.96,SSE,155,2.0,4.0,73,0.00,,,0.00,Wunderground v.1.15,2013-03-30 10:48:00,
2013-03-30 05:53:00,47.7,39.5,29.96,SE,144,2.0,6.0,73,0.00,,,0.00,Wunderground v.1.15,2013-03-30 10:53:00,
2013-03-30 05:59:00,47.7,39.5,29.96,SE,145,2.0,6.0,73,0.00,,,0.00,Wunderground v.1.15,2013-03-30 10:59:00,
2013-03-30 06:05:00,47.7,39.8,29.96,SSE,150,1.0,4.0,74,0.00,,,0.00,Wunderground v.1.15,2013-03-30 11:05:00,
2013-03-30 06:10:00,47.7,39.8,29.96,SSE,150,1.0,4.0,74,0.00,,,0.00,Wunderground v.1.15,2013-03-30 11:10:00,
2013-03-30 06:16:00,47.7,40.2,29.95,SE,138,1.0,4.0,75,0.00,,,0.00,Wunderground v.1.15,2013-03-30 11:16:00,
2013-03-30 06:22:00,47.7,40.2,29.95,SE,138,1.0,4.0,75,0.00,,,0.00,Wunderground v.1.15,2013-03-30 11:22:00,
2013-03-30 06:27:00,47.6,40.1,29.95,SE,138,0.0,4.0,75,0.00,,,0.00,Wunderground v.1.15,2013-03-30 11:27:00,
2013-03-30 06:33:00,47.7,40.8,29.95,SSE,153,1.0,4.0,77,0.00,,,0.00,Wunderground v.1.15,2013-03-30 11:33:00,
2013-03-30 06:38:00,47.7,40.8,29.95,SSE,153,1.0,4.0,77,0.00,,,0.00,Wunderground v.1.15,2013-03-30 11:38:00,
2013-03-30 06:44:00,47.7,41.2,29.95,SSE,153,1.0,4.0,78,0.00,,,0.00,Wunderground v.1.15,2013-03-30 11:44:00,
2013-03-30 06:50:00,47.6,41.4,29.95,SSE,157,0.0,4.0,79,0.00,,,0.00,Wunderground v.1.15,2013-03-30 11:50:00,
2013-03-30 06:55:00,47.5,41.3,29.96,SSE,157,0.0,4.0,79,0.00,,,0.00,Wunderground v.1.15,2013-03-30 11:55:00,
2013-03-30 07:00:00,47.3,41.4,29.97,SSE,157,0.0,4.0,80,0.00,,,0.00,Wunderground v.1.15,2013-03-30 12:00:00,
2013-03-30 07:05:00,47.2,41.7,29.97,SSE,157,0.0,4.0,81,0.00,,,0.00,Wunderground v.1.15,2013-03-30 12:05:00,
2013-03-30 07:11:00,47.0,41.8,29.97,SSE,157,0.0,4.0,82,0.00,,,0.00,Wunderground v.1.15,2013-03-30 12:11:00,
2013-03-30 07:17:00,46.8,41.9,29.97,SSE,157,0.0,4.0,83,0.00,,,0.00,Wunderground v.1.15,2013-03-30 12:17:00,
2013-03-30 07:22:00,46.5,42.2,29.97,SSE,157,1.0,4.0,85,0.00,,,0.00,Wunderground v.1.15,2013-03-30 12:22:00,
2013-03-30 07:27:00,46.3,42.0,29.97,SSE,157,0.0,4.0,85,0.00,,,0.00,Wunderground v.1.15,2013-03-30 12:27:00,
2013-03-30 07:33:00,46.1,42.4,29.97,SSE,157,0.0,4.0,87,0.00,,,0.00,Wunderground v.1.15,2013-03-30 12:33:00,
2013-03-30 07:39:00,46.0,42.3,29.97,SSE,157,0.0,4.0,87,0.00,,,0.00,Wunderground v.1.15,2013-03-30 12:39:00,
2013-03-30 07:44:00,46.1,42.4,29.97,SSE,157,0.0,4.0,87,0.00,,,0.01,Wunderground v.1.15,2013-03-30 12:44:00,
2013-03-30 07:50:00,46.2,42.5,29.97,SSE,157,1.0,4.0,87,0.00,,,0.01,Wunderground v.1.15,2013-03-30 12:50:00,
2013-03-30 07:56:00,46.3,42.3,29.98,SSE,157,1.0,4.0,86,0.00,,,0.01,Wunderground v.1.15,2013-03-30 12:56:00,
2013-03-30 08:02:00,46.3,42.6,29.98,SSE,157,0.0,4.0,87,0.00,,,0.01,Wunderground v.1.15,2013-03-30 13:02:00,
2013-03-30 08:08:00,46.3,42.6,29.97,SSE,157,1.0,4.0,87,0.00,,,0.02,Wunderground v.1.15,2013-03-30 13:08:00,
2013-03-30 08:13:00,46.1,42.7,29.97,SSE,156,2.0,4.0,88,0.00,,,0.02,Wunderground v.1.15,2013-03-30 13:13:00,
2013-03-30 08:19:00,46.1,42.7,29.96,SE,145,2.0,4.0,88,0.00,,,0.02,Wunderground v.1.15,2013-03-30 13:19:00,
2013-03-30 08:25:00,46.0,42.6,29.96,SE,146,2.0,4.0,88,0.04,,,0.03,Wunderground v.1.15,2013-03-30 13:25:00,
2013-03-30 08:31:00,46.0,42.9,29.97,SE,146,1.0,4.0,89,0.07,,,0.04,Wunderground v.1.15,2013-03-30 13:31:00,
2013-03-30 08:37:00,45.9,42.8,29.96,SE,139,2.0,5.0,89,0.14,,,0.06,Wunderground v.1.15,2013-03-30 13:37:00,
2013-03-30 08:43:00,45.7,42.9,29.96,SE,136,3.0,4.0,90,0.10,,,0.06,Wunderground v.1.15,2013-03-30 13:43:00,
2013-03-30 08:48:00,45.7,43.2,29.96,SE,136,2.0,4.0,91,0.05,,,0.06,Wunderground v.1.15,2013-03-30 13:48:00,
2013-03-30 08:53:00,45.7,43.2,29.96,SE,132,2.0,4.0,91,0.04,,,0.06,Wunderground v.1.15,2013-03-30 13:53:00,
2013-03-30 08:59:00,45.5,43.0,29.95,East,80,3.0,4.0,91,0.00,,,0.07,Wunderground v.1.15,2013-03-30 13:59:00,
2013-03-30 09:05:00,45.2,43.0,29.95,SE,139,3.0,5.0,92,0.14,,,0.09,Wunderground v.1.15,2013-03-30 14:05:00,
2013-03-30 09:10:00,45.0,42.8,29.95,SE,139,3.0,3.0,92,0.09,,,0.09,Wunderground v.1.15,2013-03-30 14:10:00,
2013-03-30 09:17:00,45.0,43.1,29.94,SE,130,3.0,4.0,93,0.07,,,0.10,Wunderground v.1.15,2013-03-30 14:17:00,
2013-03-30 09:23:00,45.0,43.1,29.94,SE,137,3.0,4.0,93,0.06,,,0.10,Wunderground v.1.15,2013-03-30 14:23:00,
2013-03-30 09:28:00,45.0,43.1,29.94,SE,142,4.0,4.0,93,0.04,,,0.10,Wunderground v.1.15,2013-03-30 14:28:00,
2013-03-30 09:34:00,44.9,43.3,29.94,ESE,123,3.0,6.0,94,0.00,,,0.10,Wunderground v.1.15,2013-03-30 14:34:00,
2013-03-30 09:39:00,44.9,43.3,29.94,ESE,117,2.0,6.0,94,0.00,,,0.10,Wunderground v.1.15,2013-03-30 14:39:00,
2013-03-30 09:44:00,45.0,43.4,29.95,ESE,117,1.0,4.0,94,0.00,,,0.10,Wunderground v.1.15,2013-03-30 14:44:00,
2013-03-30 09:49:00,45.0,43.4,29.95,ESE,117,0.0,4.0,94,0.00,,,0.10,Wunderground v.1.15,2013-03-30 14:49:00,
2013-03-30 09:55:00,45.0,43.4,29.95,ESE,117,0.0,4.0,94,0.00,,,0.10,Wunderground v.1.15,2013-03-30 14:55:00,
2013-03-30 10:00:00,45.0,43.4,29.94,ESE,117,1.0,4.0,94,0.00,,,0.10,Wunderground v.1.15,2013-03-30 15:00:00,
2013-03-30 10:05:00,45.1,43.5,29.94,ESE,117,1.0,4.0,94,0.00,,,0.10,Wunderground v.1.15,2013-03-30 15:05:00,
2013-03-30 10:10:00,45.1,43.8,29.94,ESE,117,0.0,4.0,95,0.00,,,0.10,Wunderground v.1.15,2013-03-30 15:10:00,
2013-03-30 10:15:00,45.2,43.9,29.94,SSE,148,1.0,4.0,95,0.00,,,0.10,Wunderground v.1.15,2013-03-30 15:15:00,
2013-03-30 10:21:00,45.3,44.0,29.94,SSE,148,1.0,3.0,95,0.00,,,0.10,Wunderground v.1.15,2013-03-30 15:21:00,
2013-03-30 10:26:00,45.3,44.0,29.93,SE,143,1.0,4.0,95,0.00,,,0.10,Wunderground v.1.15,2013-03-30 15:26:00,
2013-03-30 10:32:00,45.4,44.1,29.93,SE,144,2.0,4.0,95,0.00,,,0.10,Wunderground v.1.15,2013-03-30 15:32:00,
2013-03-30 10:37:00,45.5,44.2,29.93,SE,140,2.0,4.0,95,0.00,,,0.10,Wunderground v.1.15,2013-03-30 15:37:00,
2013-03-30 10:43:00,45.6,44.3,29.93,SE,140,2.0,4.0,95,0.00,,,0.10,Wunderground v.1.15,2013-03-30 15:43:00,
2013-03-30 10:48:00,45.7,44.4,29.93,SE,140,2.0,4.0,95,0.00,,,0.10,Wunderground v.1.15,2013-03-30 15:48:00,
2013-03-30 10:54:00,45.8,44.4,29.92,SE,138,2.0,4.0,95,0.00,,,0.10,Wunderground v.1.15,2013-03-30 15:54:00,
2013-03-30 11:00:00,46.0,44.6,29.92,SE,134,3.0,3.0,95,0.00,,,0.10,Wunderground v.1.15,2013-03-30 16:00:00,
2013-03-30 11:06:00,45.9,44.5,29.92,SE,133,2.0,4.0,95,0.00,,,0.10,Wunderground v.1.15,2013-03-30 16:06:00,
2013-03-30 11:12:00,46.0,44.6,29.92,SE,128,2.0,4.0,95,0.00,,,0.10,Wunderground v.1.15,2013-03-30 16:12:00,
2013-03-30 11:17:00,46.1,44.7,29.92,SE,130,2.0,4.0,95,0.00,,,0.10,Wunderground v.1.15,2013-03-30 16:17:00,
2013-03-30 11:23:00,46.2,44.8,29.92,SE,125,2.0,4.0,95,0.00,,,0.10,Wunderground v.1.15,2013-03-30 16:23:00,
2013-03-30 11:28:00,46.5,45.1,29.92,SE,146,2.0,4.0,95,0.00,,,0.10,Wunderground v.1.15,2013-03-30 16:28:00,
2013-03-30 11:33:00,46.7,45.6,29.91,South,183,2.0,4.0,96,0.00,,,0.10,Wunderground v.1.15,2013-03-30 16:33:00,
2013-03-30 11:38:00,46.8,45.4,29.92,South,178,3.0,4.0,95,0.00,,,0.10,Wunderground v.1.15,2013-03-30 16:38:00,
2013-03-30 11:44:00,47.0,45.6,29.92,South,178,2.0,4.0,95,0.00,,,0.10,Wunderground v.1.15,2013-03-30 16:44:00,
2013-03-30 11:49:00,47.1,45.7,29.92,South,175,2.0,4.0,95,0.00,,,0.10,Wunderground v.1.15,2013-03-30 16:49:00,
2013-03-30 11:55:00,47.2,45.8,29.91,SSE,168,3.0,5.0,95,0.00,,,0.10,Wunderground v.1.15,2013-03-30 16:55:00,
2013-03-30 12:01:00,47.4,46.0,29.91,SSE,150,4.0,4.0,95,0.00,,,0.10,Wunderground v.1.15,2013-03-30 17:01:00,
2013-03-30 12:06:00,47.6,46.2,29.91,South,169,3.0,5.0,95,0.00,,,0.10,Wunderground v.1.15,2013-03-30 17:06:00,
2013-03-30 12:11:00,47.7,46.3,29.91,SSE,155,3.0,6.0,95,0.00,,,0.10,Wunderground v.1.15,2013-03-30 17:11:00,
2013-03-30 12:16:00,48.0,46.6,29.90,SE,132,3.0,6.0,95,0.00,,,0.10,Wunderground v.1.15,2013-03-30 17:16:00,
2013-03-30 12:21:00,48.3,46.9,29.90,South,180,2.0,4.0,95,0.00,,,0.10,Wunderground v.1.15,2013-03-30 17:21:00,
2013-03-30 12:26:00,48.8,47.4,29.90,SSE,167,3.0,4.0,95,0.00,,,0.10,Wunderground v.1.15,2013-03-30 17:26:00,
2013-03-30 12:32:00,49.5,48.1,29.90,SSE,151,3.0,4.0,95,0.00,,,0.10,Wunderground v.1.15,2013-03-30 17:32:00,
2013-03-30 12:38:00,50.3,48.9,29.89,SSE,163,3.0,5.0,95,0.00,,,0.10,Wunderground v.1.15,2013-03-30 17:38:00,
2013-03-30 12:43:00,50.5,48.8,29.89,South,176,3.0,5.0,94,0.00,,,0.10,Wunderground v.1.15,2013-03-30 17:43:00,
2013-03-30 12:49:00,50.9,49.2,29.89,SSE,164,4.0,7.0,94,0.00,,,0.10,Wunderground v.1.15,2013-03-30 17:49:00,
2013-03-30 12:54:00,51.1,49.4,29.88,SE,125,3.0,4.0,94,0.00,,,0.10,Wunderground v.1.15,2013-03-30 17:54:00,
2013-03-30 13:00:00,51.5,49.8,29.88,SSW,194,2.0,2.0,94,0.00,,,0.10,Wunderground v.1.15,2013-03-30 18:00:00,
2013-03-30 13:05:00,52.1,50.4,29.87,South,173,1.0,4.0,94,0.00,,,0.10,Wunderground v.1.15,2013-03-30 18:05:00,
2013-03-30 13:11:00,52.7,50.7,29.87,SE,145,1.0,2.0,93,0.00,,,0.10,Wunderground v.1.15,2013-03-30 18:11:00,
2013-03-30 13:16:00,52.9,50.6,29.87,SSE,161,1.0,4.0,92,0.00,,,0.10,Wunderground v.1.15,2013-03-30 18:16:00,
2013-03-30 13:22:00,53.1,50.8,29.87,SSE,150,1.0,4.0,92,0.00,,,0.10,Wunderground v.1.15,2013-03-30 18:22:00,
2013-03-30 13:28:00,53.3,50.7,29.87,SSE,163,2.0,5.0,91,0.00,,,0.10,Wunderground v.1.15,2013-03-30 18:28:00,
2013-03-30 13:34:00,53.7,51.1,29.87,SSE,163,0.0,4.0,91,0.00,,,0.10,Wunderground v.1.15,2013-03-30 18:34:00,
2013-03-30 13:39:00,53.9,51.3,29.87,SSE,168,0.0,4.0,91,0.00,,,0.10,Wunderground v.1.15,2013-03-30 18:39:00,
2013-03-30 13:45:00,53.9,51.0,29.87,South,169,0.0,4.0,90,0.00,,,0.10,Wunderground v.1.15,2013-03-30 18:45:00,
2013-03-30 13:51:00,53.9,51.0,29.87,South,173,0.0,4.0,90,0.00,,,0.10,Wunderground v.1.15,2013-03-30 18:51:00,
2013-03-30 13:57:00,53.9,51.0,29.87,South,169,0.0,4.0,90,0.00,,,0.10,Wunderground v.1.15,2013-03-30 18:57:00,
2013-03-30 14:02:00,54.1,50.9,29.86,SSW,202,0.0,4.0,89,0.00,,,0.10,Wunderground v.1.15,2013-03-30 19:02:00,
2013-03-30 14:07:00,54.2,51.3,29.86,SSE,154,0.0,4.0,90,0.00,,,0.10,Wunderground v.1.15,2013-03-30 19:07:00,
2013-03-30 14:12:00,54.4,51.2,29.86,SSE,154,0.0,4.0,89,0.00,,,0.10,Wunderground v.1.15,2013-03-30 19:12:00,
2013-03-30 14:18:00,54.9,51.7,29.86,SW,235,0.0,4.0,89,0.00,,,0.10,Wunderground v.1.15,2013-03-30 19:18:00,
2013-03-30 14:25:00,55.3,51.8,29.86,SSW,192,0.0,4.0,88,0.00,,,0.10,Wunderground v.1.15,2013-03-30 19:25:00,
2013-03-30 14:31:00,55.3,51.5,29.85,SW,222,0.0,4.0,87,0.00,,,0.10,Wunderground v.1.15,2013-03-30 19:31:00,
2013-03-30 14:37:00,55.5,51.7,29.85,South,180,1.0,4.0,87,0.00,,,0.10,Wunderground v.1.15,2013-03-30 19:37:00,
2013-03-30 14:42:00,55.5,51.4,29.84,South,175,0.0,4.0,86,0.00,,,0.10,Wunderground v.1.15,2013-03-30 19:42:00,
2013-03-30 14:48:00,55.7,51.6,29.84,South,169,0.0,4.0,86,0.00,,,0.10,Wunderground v.1.15,2013-03-30 19:48:00,
2013-03-30 14:54:00,55.9,51.8,29.84,South,169,1.0,4.0,86,0.00,,,0.10,Wunderground v.1.15,2013-03-30 19:54:00,
2013-03-30 15:00:00,56.0,51.9,29.84,South,169,0.0,4.0,86,0.00,,,0.10,Wunderground v.1.15,2013-03-30 20:00:00,
2013-03-30 15:05:00,56.3,51.8,29.84,SSW,197,0.0,4.0,85,0.00,,,0.10,Wunderground v.1.15,2013-03-30 20:05:00,
2013-03-30 15:11:00,56.5,52.0,29.84,West,271,0.0,4.0,85,0.00,,,0.10,Wunderground v.1.15,2013-03-30 20:11:00,
2013-03-30 15:16:00,56.7,51.9,29.84,West,272,0.0,4.0,84,0.00,,,0.10,Wunderground v.1.15,2013-03-30 20:16:00,
2013-03-30 15:22:00,56.8,52.0,29.84,West,273,0.0,4.0,84,0.00,,,0.10,Wunderground v.1.15,2013-03-30 20:22:00,
2013-03-30 15:27:00,57.0,52.2,29.84,West,273,0.0,4.0,84,0.00,,,0.10,Wunderground v.1.15,2013-03-30 20:27:00,
2013-03-30 15:32:00,57.2,52.1,29.83,West,277,0.0,4.0,83,0.00,,,0.10,Wunderground v.1.15,2013-03-30 20:32:00,
2013-03-30 15:38:00,57.4,52.3,29.83,West,277,0.0,4.0,83,0.00,,,0.10,Wunderground v.1.15,2013-03-30 20:38:00,
2013-03-30 15:44:00,57.8,52.7,29.83,West,275,0.0,4.0,83,0.00,,,0.10,Wunderground v.1.15,2013-03-30 20:44:00,
2013-03-30 15:50:00,58.1,53.0,29.83,SSW,213,0.0,4.0,83,0.00,,,0.10,Wunderground v.1.15,2013-03-30 20:50:00,
2013-03-30 15:55:00,58.5,53.0,29.82,SSW,213,0.0,4.0,82,0.00,,,0.10,Wunderground v.1.15,2013-03-30 20:55:00,
2013-03-30 16:01:00,59.0,53.2,29.83,SSW,213,0.0,4.0,81,0.00,,,0.10,Wunderground v.1.15,2013-03-30 21:01:00,
2013-03-30 16:07:00,59.0,53.2,29.82,SSW,213,0.0,4.0,81,0.00,,,0.10,Wunderground v.1.15,2013-03-30 21:07:00,
2013-03-30 16:13:00,59.0,52.8,29.82,SSW,213,0.0,4.0,80,0.00,,,0.10,Wunderground v.1.15,2013-03-30 21:13:00,
2013-03-30 16:18:00,58.6,52.4,29.83,East,87,1.0,4.0,80,0.00,,,0.10,Wunderground v.1.15,2013-03-30 21:18:00,
2013-03-30 16:23:00,58.4,52.6,29.83,WNW,296,1.0,4.0,81,0.00,,,0.10,Wunderground v.1.15,2013-03-30 21:23:00,
2013-03-30 16:29:00,58.1,52.3,29.83,NE,40,1.0,4.0,81,0.00,,,0.10,Wunderground v.1.15,2013-03-30 21:29:00,
2013-03-30 16:34:00,57.9,52.1,29.83,NNW,331,1.0,4.0,81,0.00,,,0.10,Wunderground v.1.15,2013-03-30 21:34:00,
2013-03-30 16:40:00,57.5,52.0,29.83,NE,34,1.0,1.0,82,0.00,,,0.10,Wunderground v.1.15,2013-03-30 21:40:00,
2013-03-30 16:46:00,56.9,51.5,29.83,NE,49,1.0,4.0,82,0.00,,,0.10,Wunderground v.1.15,2013-03-30 21:46:00,
2013-03-30 16:51:00,56.7,51.6,29.83,NE,40,1.0,4.0,83,0.00,,,0.10,Wunderground v.1.15,2013-03-30 21:51:00,
2013-03-30 16:57:00,56.6,51.5,29.83,WNW,299,1.0,4.0,83,0.00,,,0.10,Wunderground v.1.15,2013-03-30 21:57:00,
2013-03-30 17:02:00,56.6,51.2,29.83,NNW,345,1.0,4.0,82,0.00,,,0.10,Wunderground v.1.15,2013-03-30 22:02:00,
2013-03-30 17:08:00,56.9,51.1,29.83,NE,41,1.0,4.0,81,0.00,,,0.10,Wunderground v.1.15,2013-03-30 22:08:00,
2013-03-30 17:13:00,57.2,51.4,29.83,NW,304,1.0,4.0,81,0.00,,,0.10,Wunderground v.1.15,2013-03-30 22:13:00,
2013-03-30 17:19:00,57.6,51.5,29.82,NW,304,1.0,4.0,80,0.00,,,0.10,Wunderground v.1.15,2013-03-30 22:19:00,
2013-03-30 17:24:00,58.0,50.8,29.82,WNW,287,1.0,4.0,77,0.00,,,0.10,Wunderground v.1.15,2013-03-30 22:24:00,
2013-03-30 17:30:00,58.2,50.3,29.82,NNW,337,1.0,1.0,75,0.00,,,0.10,Wunderground v.1.15,2013-03-30 22:30:00,
2013-03-30 17:35:00,58.2,50.3,29.82,NW,313,1.0,4.0,75,0.00,,,0.10,Wunderground v.1.15,2013-03-30 22:35:00,
2013-03-30 17:41:00,58.3,50.0,29.82,NNE,32,1.0,4.0,74,0.00,,,0.10,Wunderground v.1.15,2013-03-30 22:41:00,
2013-03-30 17:46:00,58.2,50.0,29.83,NNE,15,1.0,4.0,74,0.00,,,0.10,Wunderground v.1.15,2013-03-30 22:46:00,
2013-03-30 17:51:00,58.1,49.9,29.82,NE,34,1.0,2.0,74,0.00,,,0.10,Wunderground v.1.15,2013-03-30 22:51:00,
2013-03-30 17:57:00,58.0,50.1,29.83,NE,34,1.0,4.0,75,0.00,,,0.10,Wunderground v.1.15,2013-03-30 22:57:00,
2013-03-30 18:03:00,58.0,49.8,29.83,NE,45,1.0,4.0,74,0.00,,,0.10,Wunderground v.1.15,2013-03-30 23:03:00,
2013-03-30 18:09:00,57.7,49.5,29.83,NE,45,1.0,4.0,74,0.00,,,0.10,Wunderground v.1.15,2013-03-30 23:09:00,
2013-03-30 18:14:00,57.4,49.5,29.83,NE,46,0.0,4.0,75,0.00,,,0.10,Wunderground v.1.15,2013-03-30 23:14:00,
2013-03-30 18:20:00,57.1,49.2,29.82,NE,46,0.0,4.0,75,0.00,,,0.10,Wunderground v.1.15,2013-03-30 23:20:00,
2013-03-30 18:25:00,57.0,49.2,29.83,NE,45,0.0,4.0,75,0.00,,,0.10,Wunderground v.1.15,2013-03-30 23:25:00,
2013-03-30 18:30:00,57.0,49.5,29.83,NE,35,1.0,4.0,76,0.00,,,0.10,Wunderground v.1.15,2013-03-30 23:30:00,
2013-03-30 18:36:00,57.2,49.7,29.83,NE,35,1.0,4.0,76,0.00,,,0.10,Wunderground v.1.15,2013-03-30 23:36:00,
2013-03-30 18:41:00,57.6,50.1,29.83,NE,34,0.0,4.0,76,0.00,,,0.10,Wunderground v.1.15,2013-03-30 23:41:00,
2013-03-30 18:46:00,57.9,50.0,29.83,NW,307,0.0,4.0,75,0.00,,,0.10,Wunderground v.1.15,2013-03-30 23:46:00,
2013-03-30 18:52:00,58.0,49.4,29.83,NE,53,1.0,4.0,73,0.00,,,0.10,Wunderground v.1.15,2013-03-30 23:52:00,
2013-03-30 18:57:00,58.0,49.4,29.83,NE,53,0.0,4.0,73,0.00,,,0.10,Wunderground v.1.15,2013-03-30 23:57:00,
2013-03-30 19:03:00,58.0,49.4,29.83,NE,53,0.0,4.0,73,0.00,,,0.10,Wunderground v.1.15,2013-03-31 00:03:00,
2013-03-30 19:08:00,57.8,49.2,29.83,NE,52,0.0,4.0,73,0.00,,,0.10,Wunderground v.1.15,2013-03-31 00:08:00,
2013-03-30 19:13:00,57.5,48.9,29.83,NE,52,0.0,4.0,73,0.00,,,0.10,Wunderground v.1.15,2013-03-31 00:13:00,
2013-03-30 19:19:00,57.0,48.4,29.83,NE,52,0.0,4.0,73,0.00,,,0.10,Wunderground v.1.15,2013-03-31 00:19:00,
2013-03-30 19:25:00,56.5,48.3,29.83,NE,53,0.0,4.0,74,0.00,,,0.10,Wunderground v.1.15,2013-03-31 00:25:00,
2013-03-30 19:30:00,56.2,48.4,29.84,NE,53,0.0,4.0,75,0.00,,,0.10,Wunderground v.1.15,2013-03-31 00:30:00,
2013-03-30 19:35:00,55.8,48.0,29.83,NE,52,0.0,4.0,75,0.00,,,0.10,Wunderground v.1.15,2013-03-31 00:35:00,
2013-03-30 19:41:00,55.3,47.9,29.84,NE,52,0.0,4.0,76,0.00,,,0.10,Wunderground v.1.15,2013-03-31 00:41:00,
2013-03-30 19:46:00,54.8,47.7,29.84,NE,53,0.0,4.0,77,0.00,,,0.10,Wunderground v.1.15,2013-03-31 00:46:00,
2013-03-30 19:51:00,54.3,47.6,29.84,NE,53,0.0,4.0,78,0.00,,,0.10,Wunderground v.1.15,2013-03-31 00:51:00,
2013-03-30 19:57:00,53.7,47.3,29.84,NE,52,0.0,4.0,79,0.00,,,0.10,Wunderground v.1.15,2013-03-31 00:57:00,
2013-03-30 20:03:00,53.1,47.1,29.84,NE,53,0.0,4.0,80,0.00,,,0.10,Wunderground v.1.15,2013-03-31 01:03:00,
2013-03-30 20:09:00,52.6,46.9,29.85,NE,52,0.0,4.0,81,0.00,,,0.10,Wunderground v.1.15,2013-03-31 01:09:00,
2013-03-30 20:15:00,52.2,46.9,29.85,NE,52,0.0,4.0,82,0.00,,,0.10,Wunderground v.1.15,2013-03-31 01:15:00,
2013-03-30 20:20:00,51.8,46.5,29.85,NE,53,0.0,4.0,82,0.00,,,0.10,Wunderground v.1.15,2013-03-31 01:20:00,
2013-03-30 20:25:00,51.5,46.2,29.85,NE,53,0.0,4.0,82,0.00,,,0.10,Wunderground v.1.15,2013-03-31 01:25:00,
2013-03-30 20:31:00,51.1,46.1,29.86,NE,53,0.0,4.0,83,0.00,,,0.10,Wunderground v.1.15,2013-03-31 01:31:00,
2013-03-30 20:37:00,50.6,45.9,29.86,NE,53,0.0,4.0,84,0.00,,,0.10,Wunderground v.1.15,2013-03-31 01:37:00,
2013-03-30 20:42:00,50.2,45.6,29.86,NE,52,0.0,4.0,84,0.00,,,0.10,Wunderground v.1.15,2013-03-31 01:42:00,
2013-03-30 20:47:00,49.9,45.6,29.86,NE,52,0.0,4.0,85,0.00,,,0.10,Wunderground v.1.15,2013-03-31 01:47:00,
2013-03-30 20:53:00,49.6,45.6,29.86,NE,53,0.0,4.0,86,0.00,,,0.10,Wunderground v.1.15,2013-03-31 01:53:00,
2013-03-30 20:59:00,49.3,45.3,29.86,NE,52,0.0,4.0,86,0.00,,,0.10,Wunderground v.1.15,2013-03-31 01:59:00,
2013-03-30 21:04:00,49.1,45.4,29.86,NE,53,0.0,4.0,87,0.00,,,0.10,Wunderground v.1.15,2013-03-31 02:04:00,
2013-03-30 21:09:00,48.9,45.2,29.86,NE,52,0.0,4.0,87,0.00,,,0.10,Wunderground v.1.15,2013-03-31 02:09:00,
2013-03-30 21:15:00,48.7,45.3,29.86,NE,53,0.0,4.0,88,0.00,,,0.10,Wunderground v.1.15,2013-03-31 02:15:00,
2013-03-30 21:21:00,48.6,45.2,29.86,NE,53,0.0,4.0,88,0.00,,,0.10,Wunderground v.1.15,2013-03-31 02:21:00,
2013-03-30 21:27:00,48.5,45.1,29.86,NE,52,0.0,4.0,88,0.00,,,0.10,Wunderground v.1.15,2013-03-31 02:27:00,
2013-03-30 21:33:00,48.4,45.3,29.87,NE,53,0.0,4.0,89,0.00,,,0.10,Wunderground v.1.15,2013-03-31 02:33:00,
2013-03-30 21:38:00,48.3,45.2,29.87,NE,53,0.0,4.0,89,0.00,,,0.10,Wunderground v.1.15,2013-03-31 02:38:00,
2013-03-30 21:44:00,48.3,45.2,29.87,NE,53,0.0,4.0,89,0.00,,,0.10,Wunderground v.1.15,2013-03-31 02:44:00,
2013-03-30 21:50:00,48.2,45.1,29.87,NE,53,0.0,4.0,89,0.00,,,0.10,Wunderground v.1.15,2013-03-31 02:50:00,
2013-03-30 21:56:00,48.1,45.3,29.87,NE,53,0.0,4.0,90,0.00,,,0.10,Wunderground v.1.15,2013-03-31 02:56:00,
2013-03-30 22:01:00,48.1,45.3,29.87,NE,52,0.0,4.0,90,0.00,,,0.10,Wunderground v.1.15,2013-03-31 03:01:00,
2013-03-30 22:07:00,48.0,45.2,29.87,NE,52,0.0,4.0,90,0.00,,,0.10,Wunderground v.1.15,2013-03-31 03:07:00,
2013-03-30 22:12:00,47.9,45.1,29.87,NE,53,0.0,4.0,90,0.00,,,0.10,Wunderground v.1.15,2013-03-31 03:12:00,
2013-03-30 22:17:00,47.8,45.3,29.87,NE,53,0.0,4.0,91,0.00,,,0.10,Wunderground v.1.15,2013-03-31 03:17:00,
2013-03-30 22:23:00,47.8,45.3,29.87,NE,53,0.0,4.0,91,0.00,,,0.10,Wunderground v.1.15,2013-03-31 03:23:00,
2013-03-30 22:28:00,47.7,45.2,29.87,NE,52,0.0,4.0,91,0.00,,,0.10,Wunderground v.1.15,2013-03-31 03:28:00,
2013-03-30 22:34:00,47.6,45.1,29.87,NE,52,0.0,4.0,91,0.00,,,0.10,Wunderground v.1.15,2013-03-31 03:34:00,
2013-03-30 22:39:00,47.4,44.9,29.88,NE,52,0.0,4.0,91,0.00,,,0.10,Wunderground v.1.15,2013-03-31 03:39:00,
2013-03-30 22:44:00,47.2,44.7,29.88,NE,53,0.0,4.0,91,0.00,,,0.10,Wunderground v.1.15,2013-03-31 03:44:00,
2013-03-30 22:50:00,47.0,44.5,29.88,NE,52,0.0,4.0,91,0.00,,,0.10,Wunderground v.1.15,2013-03-31 03:50:00,
2013-03-30 22:55:00,46.9,44.4,29.88,NE,53,0.0,4.0,91,0.00,,,0.10,Wunderground v.1.15,2013-03-31 03:55:00,
2013-03-30 23:00:00,46.7,44.2,29.88,NE,53,0.0,4.0,91,0.00,,,0.10,Wunderground v.1.15,2013-03-31 04:00:00,
2013-03-30 23:02:00,46.6,44.1,29.88,NE,53,0.0,4.0,91,0.00,,,0.10,Wunderground v.1.15,2013-03-31 04:02:00,
2013-03-30 23:07:00,46.5,44.0,29.87,NE,52,0.0,4.0,91,0.00,,,0.10,Wunderground v.1.15,2013-03-31 04:07:00,
2013-03-30 23:09:00,46.4,44.2,29.87,NE,52,0.0,4.0,92,0.00,,,0.10,Wunderground v.1.15,2013-03-31 04:09:00,
2013-03-30 23:15:00,46.3,44.1,29.87,NE,53,0.0,4.0,92,0.00,,,0.10,Wunderground v.1.15,2013-03-31 04:15:00,
2013-03-30 23:21:00,46.2,44.0,29.88,NE,53,0.0,4.0,92,0.00,,,0.10,Wunderground v.1.15,2013-03-31 04:21:00,
2013-03-30 23:26:00,46.1,43.9,29.87,NE,53,0.0,4.0,92,0.00,,,0.10,Wunderground v.1.15,2013-03-31 04:26:00,
2013-03-30 23:32:00,46.0,43.8,29.87,NE,53,0.0,4.0,92,0.00,,,0.10,Wunderground v.1.15,2013-03-31 04:32:00,
2013-03-30 23:38:00,45.9,43.7,29.87,NE,52,0.0,4.0,92,0.00,,,0.10,Wunderground v.1.15,2013-03-31 04:38:00,
2013-03-30 23:43:00,45.9,44.0,29.86,NE,52,0.0,4.0,93,0.00,,,0.10,Wunderground v.1.15,2013-03-31 04:43:00,
2013-03-30 23:49:00,45.9,43.7,29.87,NE,53,0.0,4.0,92,0.00,,,0.10,Wunderground v.1.15,2013-03-31 04:49:00,
2013-03-30 23:55:00,45.9,44.0,29.87,NE,53,0.0,4.0,93,0.00,,,0.10,Wunderground v.1.15,2013-03-31 04:55:00,